This demonstration page uses our WeatherBlox Daily Observations layout. Learn more.

Left ArrowRight Arrow

Hourly Observations for January 17, 2017

Temp ( °F °C ) Dew Point ( °F °C ) Humidity (%) Winds ( mph kmh ) Pressure ( in mb ) Visibility ( mi km ) Precip ( " mm )
12:16 am 00:16 Cloudy 50 10 50 10 100 100 S 6 9 30.00 1016 4 6 N/A
12:35 am 00:35 Cloudy 50 10 50 10 100 100 SSE 8 13 29.97 1015 3 5 N/A
12:56 am 00:56 Cloudy 50 10 50 10 100 100 SSE 12 19 29.94 1014 4 6 N/A
1:15 am 01:15 Cloudy 52 11 52 11 100 100 S 8 13 29.94 1014 3 5 N/A
1:35 am 01:35 Cloudy 52 11 52 11 100 100 S 10 17 29.91 1013 7 11 N/A
1:55 am 01:55 Cloudy 54 12 52 11 94 94 S 9 15 29.91 1013 10 16 N/A
2:15 am 02:15 Cloudy 54 12 52 11 94 94 S 9 15 29.91 1013 10 16 N/A
2:36 am 02:36 Cloudy 54 12 52 11 94 94 S 12 19 29.88 1012 7 11 N/A
2:55 am 02:55 Cloudy 54 12 52 11 94 94 S 10 17 29.88 1012 7 11 N/A
3:15 am 03:15 Cloudy 54 12 52 11 94 94 S 12 19 29.88 1012 7 11 N/A
3:35 am 03:35 Cloudy 54 12 52 11 94 94 S 10 17 29.88 1012 7 11 N/A
3:55 am 03:55 Cloudy 54 12 54 12 100 100 S 13 20 29.85 1011 5 8 N/A
4:16 am 04:16 Cloudy 54 12 52 11 94 94 S 12 19 29.83 1010 10 16 N/A
4:35 am 04:35 Cloudy 54 12 54 12 100 100 S 10 17 29.83 1010 10 16 N/A
4:55 am 04:55 Cloudy 54 12 54 12 100 100 S 13 20 29.83 1010 10 16 N/A
5:15 am 05:15 Cloudy 54 12 54 12 100 100 S 13 20 29.83 1010 10 16 N/A
5:35 am 05:35 Cloudy 54 12 54 12 100 100 S 13 20 29.83 1010 10 16 N/A
5:56 am 05:56 Cloudy 54 12 54 12 100 100 S 8 13 29.80 1009 10 16 N/A
6:15 am 06:15 Cloudy 55 13 54 12 94 94 S 13 20 29.80 1009 10 16 N/A
6:35 am 06:35 Cloudy 55 13 54 12 94 94 SSW 13 20 29.83 1010 7 11 N/A
6:55 am 06:55 Cloudy 55 13 54 12 94 94 WSW 24 39 29.83 1010 3 5 N/A
7:15 am 07:15 Cloudy 54 12 50 10 88 88 W 14 22 29.85 1011 10 16 N/A
7:36 am 07:36 Cloudy 52 11 50 10 94 94 W 12 19 29.85 1011 10 16 N/A
7:55 am 07:55 Cloudy 52 11 50 10 94 94 WSW 14 22 29.88 1012 10 16 N/A
8:15 am 08:15 Cloudy 52 11 50 10 94 94 W 13 20 29.88 1012 10 16 N/A
8:36 am 08:36 Cloudy 52 11 48 9 88 88 W 15 24 29.88 1012 10 16 N/A
8:55 am 08:55 Cloudy 52 11 48 9 88 88 W 10 17 29.88 1012 10 16 N/A
9:15 am 09:15 Cloudy 50 10 48 9 94 94 W 10 17 29.91 1013 10 16 N/A
9:35 am 09:35 Cloudy 50 10 48 9 94 94 W 14 22 29.91 1013 10 16 N/A
9:55 am 09:55 Cloudy 50 10 48 9 94 94 WSW 12 19 29.94 1014 10 16 N/A
10:16 am 10:16 Cloudy 50 10 48 9 94 94 W 12 19 29.94 1014 10 16 N/A
10:35 am 10:35 Cloudy 50 10 48 9 94 94 W 12 19 29.94 1014 10 16 N/A
10:55 am 10:55 Cloudy 50 10 46 8 88 88 WSW 8 13 29.94 1014 10 16 N/A
11:16 am 11:16 Cloudy 48 9 45 7 87 87 W 17 28 29.94 1014 10 16 N/A
11:35 am 11:35 Cloudy 48 9 45 7 87 87 W 14 22 29.94 1014 10 16 N/A
11:55 am 11:55 Cloudy 46 8 45 7 93 93 W 14 22 29.94 1014 10 16 N/A
12:16 pm 12:16 Cloudy 46 8 43 6 87 87 W 16 26 29.94 1014 10 16 N/A
12:35 pm 12:35 Cloudy 46 8 43 6 87 87 W 16 26 29.94 1014 10 16 N/A
12:55 pm 12:55 Cloudy 45 7 43 6 93 93 W 15 24 29.94 1014 10 16 N/A
1:15 pm 13:15 Cloudy 45 7 41 5 87 87 W 14 22 29.94 1014 10 16 N/A
1:35 pm 13:35 Cloudy 45 7 41 5 87 87 WSW 14 22 29.97 1015 10 16 N/A
1:56 pm 13:56 Cloudy 45 7 41 5 87 87 WSW 14 22 29.94 1014 10 16 N/A
2:15 pm 14:15 Cloudy 45 7 41 5 87 87 SW 16 26 29.94 1014 10 16 N/A
2:35 pm 14:35 Cloudy 45 7 41 5 87 87 WSW 14 22 29.94 1014 10 16 N/A
2:56 pm 14:56 Cloudy 46 8 41 5 82 82 WSW 14 22 29.97 1015 10 16 N/A
3:15 pm 15:15 Cloudy 45 7 41 5 87 87 WSW 15 24 29.97 1015 10 16 N/A
3:35 pm 15:35 Cloudy 45 7 41 5 87 87 W 14 22 29.97 1015 10 16 N/A
3:55 pm 15:55 Cloudy 45 7 41 5 87 87 W 14 22 29.97 1015 10 16 N/A
4:15 pm 16:15 Cloudy 45 7 41 5 87 87 W 13 20 29.97 1015 10 16 N/A
4:36 pm 16:36 Cloudy 45 7 41 5 87 87 W 12 19 30.00 1016 10 16 N/A
4:55 pm 16:55 Cloudy 45 7 41 5 87 87 W 10 17 30.00 1016 10 16 N/A
5:15 pm 17:15 Cloudy 43 6 41 5 93 93 W 10 17 30.00 1016 7 11 N/A
5:35 pm 17:35 Cloudy 43 6 41 5 93 93 W 10 17 30.00 1016 7 11 N/A
5:55 pm 17:55 Cloudy 43 6 41 5 93 93 W 13 20 30.03 1017 10 16 N/A
6:16 pm 18:16 Cloudy 43 6 41 5 93 93 W 13 20 30.03 1017 10 16 N/A
6:35 pm 18:35 Cloudy 43 6 39 4 87 87 W 16 26 30.03 1017 10 16 N/A
6:55 pm 18:55 Cloudy 43 6 39 4 87 87 W 14 22 30.03 1017 10 16 N/A
7:16 pm 19:16 Cloudy 43 6 41 5 93 93 WSW 12 19 30.03 1017 7 11 N/A
7:35 pm 19:35 Cloudy 43 6 41 5 93 93 WSW 10 17 30.06 1018 10 16 N/A
7:55 pm 19:55 Cloudy 43 6 39 4 87 87 W 10 17 30.06 1018 10 16 N/A
8:15 pm 20:15 Cloudy 43 6 39 4 87 87 W 12 19 30.06 1018 7 11 N/A
8:35 pm 20:35 Cloudy 41 5 39 4 93 93 W 13 20 30.06 1018 10 16 N/A
8:56 pm 20:56 Cloudy 41 5 41 5 100 100 W 10 17 30.06 1018 5 8 N/A
9:15 pm 21:15 Cloudy 41 5 39 4 93 93 W 16 26 30.06 1018 3 4 N/A
9:35 pm 21:35 Cloudy 41 5 39 4 93 93 W 16 26 30.06 1018 5 8 N/A
9:56 pm 21:56 Cloudy 41 5 39 4 93 93 W 14 22 30.06 1018 10 16 N/A
10:15 pm 22:15 Cloudy 41 5 39 4 93 93 W 13 20 30.06 1018 10 16 N/A
10:35 pm 22:35 Cloudy 39 4 37 3 93 93 W 17 28 30.06 1018 10 16 N/A
10:56 pm 22:56 Cloudy 39 4 37 3 93 93 W 17 28 30.06 1018 10 16 N/A
11:15 pm 23:15 Cloudy 39 4 37 3 93 93 W 15 24 30.09 1019 10 16 N/A
11:35 pm 23:35 Cloudy 37 3 36 2 93 93 W 15 24 30.12 1020 4 6 N/A
11:55 pm 23:55 Cloudy 37 3 36 2 93 93 W 17 28 30.12 1020 10 16 N/A

Powered by AerisWeather